This is the latest recevied weather packets stored in our database for station/object KD0KHX-10. If no packets are shown the sender has not sent any weather packets the latest 10 day(s).
| Time | Temp. | Humidity | Pressure | Rain* | Wind** | Luminosity | Snow |
|---|---|---|---|---|---|---|---|
| 1777493703 | 12.22° C | 56% | 1012.8 hPa | 0 mm | - | - | - |
| 1777493674 | 12.22° C | 56% | 1012.8 hPa | 0 mm | - | - | - |
| 1777493103 | 12.22° C | 54% | 1012.7 hPa | 0 mm | - | - | - |
| 1777492803 | 12.22° C | 54% | 1012.7 hPa | 0 mm | - | - | - |
| 1777492503 | 12.22° C | 53% | 1012.8 hPa | 0 mm | - | - | - |
| 1777492203 | 12.22° C | 53% | 1013 hPa | 0 mm | - | - | - |
| 1777491906 | 12.22° C | 53% | 1013 hPa | 0 mm | - | - | - |
| 1777491603 | 12.22° C | 53% | 1013.2 hPa | 0 mm | - | - | - |
| 1777491572 | 12.22° C | 53% | 1013.2 hPa | 0 mm | - | - | - |
| 1777491003 | 12.22° C | 53% | 1013.4 hPa | 0 mm | - | - | - |
| 1777490703 | 12.22° C | 54% | 1013.4 hPa | 0 mm | - | - | - |
| 1777490403 | 12.22° C | 54% | 1013.6 hPa | 0 mm | - | - | - |
| 1777490103 | 12.22° C | 54% | 1013.6 hPa | 0 mm | - | - | - |
| 1777489803 | 11.67° C | 56% | 1013.4 hPa | 0 mm | - | - | - |
| 1777489503 | 11.67° C | 56% | 1013.2 hPa | 0 mm | - | - | - |
| 1777489473 | 11.67° C | 56% | 1013.2 hPa | 0 mm | - | - | - |
| 1777489172 | 11.67° C | 57% | 1013.2 hPa | 0 mm | - | - | - |
| 1777488603 | 12.22° C | 59% | 1013.6 hPa | 0 mm | - | - | - |
| 1777488572 | 12.22° C | 59% | 1013.6 hPa | 0 mm | - | - | - |
| 1777488138 | 12.22° C | 59% | 1014.1 hPa | 0 mm | - | - | - |
| 1777487703 | 12.22° C | 57% | 1014.3 hPa | 0 mm | - | - | - |
| 1777487403 | 12.22° C | 60% | 1014.5 hPa | 0 mm | - | - | - |
| 1777487103 | 12.22° C | 61% | 1014.6 hPa | 0 mm | - | - | - |
| 1777486803 | 11.67° C | 63% | 1014.7 hPa | 0 mm | - | - | - |
| 1777486503 | 11.67° C | 65% | 1014.7 hPa | 0 mm | - | - | - |
* Rain latest hour (hover to see other rain measurements)
** Current wind speed in m/s (hover to see current wind gust speed)